Concordia, KS

2:47 PM CST on December 04, 2016 (GMT -0600)
Blosser Municipal

Weather History for KCNK - August, 2012

Change the Weather History Date:

Saturday, August 18, 2012

  Actual Average Record
Temperature  
Mean Temperature 68 °F 77 °F  
Max Temperature 83 °F 89 °F 109 °F (1934)
Min Temperature 52 °F 66 °F 52 °F (2012)
Degree Days  
Heating Degree Days 0 0  
Month to date heating degree days 0 0  
Since 1 June heating degree days 13 13  
Since 1 July heating degree days 0 0  
Cooling Degree Days 3 12  
Month to date cooling degree days 169 236  
Year to date cooling degree days 1398 1026  
Since 1 June cooling degree days 1154 937  
Growing Degree Days 17 (Base 50)    
Moisture  
Dew Point 48 °F    
Average Humidity 52    
Maximum Humidity 72    
Minimum Humidity 31    
Precipitation  
Precipitation 0.01 in 0.09 in 1.59 in (1963)
Month to date precipitation 1.54 1.90  
Year to date precipitation 16.45 19.86  
Snow  
Snow 0.00 in 0.00 in T in (1986)
Month to date snowfall 0.0 0.0  
Year to date snowfall 5.8 13.7  
Since 1 July snowfall 0.0 0.0  
Snow Depth 0.00 in    
Sea Level Pressure  
Sea Level Pressure 29.95 in    
Wind  
Wind Speed 5 mph (ENE)    
Max Wind Speed 16 mph    
Max Gust Speed 21 mph    
Visibility 10 miles    
Events      
T = Trace of Precipitation, MM = Missing Value Source: NWS Daily Summary

Daily Weather History Graph

Daily Weather History Graph

Search for Another Location

Airport or City:

Trip Planner

Search our weather history database for the weather conditions in past years. The results will help you decide how hot, cold, wet, or windy it might be!

Date:

Astronomy

Aug. 18, 2012 Rise Set
Actual Time 6:46 AM CDT 8:21 PM CDT
Civil Twilight 6:17 AM CDT 8:50 PM CDT
Nautical Twilight 5:43 AM CDT 9:24 PM CDT
Astronomical Twilight 5:06 AM CDT 10:00 PM CDT
Moon 7:55 AM CDT (8/18) 8:39 PM CDT (8/18)
Length of Visible Light 14h 32m
Length of Day
13h 35m
New Moon, 1% of the Moon is Illuminated
Aug 18
New Moon
Aug 24
First Quarter
Aug 31
Full
Sep 8
Last Quarter
Sep 15
New

Hourly Weather History & Observations

Time (CDT) Temp. Dew Point Humidity Pressure Visibility Wind Dir Wind Speed Gust Speed Precip Events Conditions
12:55 AM 61.0 °F 48.9 °F 64% 30.03 in 10.0 mi Calm Calm - N/A   Overcast
1:55 AM 59.0 °F 48.0 °F 67% 30.03 in 10.0 mi Calm Calm - N/A   Mostly Cloudy
2:55 AM 59.0 °F 46.9 °F 64% 30.01 in 10.0 mi Calm Calm - N/A   Mostly Cloudy
3:55 AM 57.9 °F 46.0 °F 65% 30.01 in 10.0 mi Calm Calm - N/A   Scattered Clouds
4:55 AM 55.0 °F 46.9 °F 74% 29.99 in 10.0 mi East 3.5 mph - N/A   Clear
5:55 AM 57.0 °F 45.0 °F 64% 29.96 in 10.0 mi SE 3.5 mph - N/A   Clear
6:55 AM 55.4 °F 44.6 °F 67% 29.98 in 10.0 mi East 4.6 mph - N/A   Clear
7:55 AM 57.0 °F 48.9 °F 74% 29.98 in 10.0 mi NNE 3.5 mph - N/A   Clear
8:55 AM 63.0 °F 50.0 °F 63% 29.96 in 10.0 mi East 4.6 mph - N/A   Clear
9:55 AM 72.0 °F 46.0 °F 40% 29.95 in 10.0 mi SSE 8.1 mph - N/A   Clear
10:55 AM 73.9 °F 45.0 °F 35% 29.96 in 10.0 mi SSW 10.4 mph - N/A   Partly Cloudy
11:55 AM 73.9 °F 46.0 °F 37% 29.97 in 10.0 mi WSW 8.1 mph - N/A   Mostly Cloudy
12:55 PM 75.0 °F 52.0 °F 44% 29.94 in 10.0 mi Calm Calm - 0.01 in   Mostly Cloudy
1:55 PM 75.9 °F 53.1 °F 45% 29.93 in 10.0 mi NE 8.1 mph - 0.00 in   Scattered Clouds
2:55 PM 78.1 °F 51.1 °F 39% 29.91 in 10.0 mi Calm Calm - N/A   Scattered Clouds
3:55 PM 79.0 °F 48.9 °F 35% 29.89 in 10.0 mi NNE 6.9 mph - N/A   Mostly Cloudy
4:55 PM 81.0 °F 48.0 °F 31% 29.87 in 10.0 mi Calm Calm - N/A   Partly Cloudy
5:55 PM 82.0 °F 48.9 °F 31% 29.87 in 10.0 mi Calm Calm - N/A   Clear
6:55 PM 79.0 °F 48.0 °F 34% 29.86 in 10.0 mi East 6.9 mph - N/A   Clear
7:55 PM 73.9 °F 48.9 °F 41% 29.88 in 10.0 mi East 5.8 mph - N/A   Clear
8:55 PM 69.1 °F 50.0 °F 51% 29.91 in 10.0 mi East 5.8 mph - N/A   Mostly Cloudy
9:55 PM 66.0 °F 50.0 °F 56% 29.94 in 10.0 mi ENE 4.6 mph - N/A   Mostly Cloudy
10:55 PM 63.0 °F 50.0 °F 63% 29.97 in 10.0 mi NNE 6.9 mph - N/A   Partly Cloudy
11:55 PM 61.0 °F 46.9 °F 60% 30.00 in 10.0 mi NNE 6.9 mph - N/A   Clear